[[{"header":{"parameterUnit":"m.s-1","parameterCategory":1,"la1":30.2991,"la2":30.254,"lo1":-89.0895,"lo2":-89.0444,"dy":0.0017,"dx":0.0017,"nx":28,"ny":28,"refTime":"2025-06-20T03:00:00:Z","depth":0,"parameterNumber":2,"parameterNumberName":"U-component_of_WINDS"},"data":[0,0,0,0,0,0,0,0,0,0,0,0,0,0,0,0,0,0,0,0,0,0,0,0,0,0,0,0,0,0,0,0,0,0,0,0,0,0,0,0,0,0,0,0,0,0,0,0,0,0,0,0,0,0,0,0,0,0,2.4091,2.4092,0,2.4168,2.4169,2.417,2.4133,2.4131,2.4129,2.4127,2.4206,2.421,2.4214,0,0,0,0,0,0,0,0,0,0,0,0,0,2.3911,2.3914,2.4091,2.4092,2.4093,2.4168,2.4169,2.417,2.4133,2.4131,2.4128,2.4126,2.4205,2.4209,2.4214,0,0,0,0,0,0,0,0,0,0,0,0,0,2.3989,2.3915,2.4091,2.4084,2.4084,2.4168,2.4169,2.417,2.4134,2.4131,2.4128,2.4125,2.4203,2.4209,2.4215,2.431,0,0,2.4233,2.4235,0,0,0,0,0,0,0,0,2.3984,2.3995,2.4084,2.4084,2.4084,2.4138,2.4134,2.4217,2.4134,2.4115,2.4127,2.4124,2.4186,2.4193,2.4214,2.4314,2.4317,2.4233,2.4237,2.4239,2.4241,0,0,0,0,0,0,0,2.3979,2.3992,2.4121,2.4085,2.4086,2.4076,2.4084,2.415,2.4166,2.4116,2.4114,2.4123,2.4185,2.4208,2.4215,2.4318,2.4233,2.4238,2.4242,2.4244,2.4498,2.4501,0,0,0,0,0,0,2.3974,2.3987,2.4119,2.4124,2.4026,2.4082,2.409,2.4124,2.4165,2.4168,2.4126,2.4121,2.4199,2.4208,2.4218,2.433,2.4239,2.4245,2.4248,2.4494,2.4498,2.4502,0,0,0,0,0,0,2.397,2.3986,2.4116,2.4055,2.4071,2.4088,2.4126,2.4127,2.4149,2.4172,2.4175,2.4146,2.4197,2.421,2.4287,2.4332,2.4247,2.4253,2.4491,2.4496,2.45,2.4556,0,0,0,0,0,0,2.3965,2.3985,2.4022,2.4056,2.4074,2.4184,2.4128,2.413,2.416,2.4155,2.4192,2.4195,2.4196,2.4278,2.4293,2.4339,2.4257,2.4487,2.4493,2.4499,2.455,2.4562,2.4573,0,0,0,0,0,2.3959,2.4035,2.4024,2.404,2.412,2.4187,2.4197,2.4196,2.4164,2.42,2.4214,2.4194,2.4325,2.4286,2.4302,2.4351,2.4484,2.4491,2.4498,2.4545,2.456,2.4572,0,0,0,0,0,0,2.4006,2.4039,2.4027,2.4117,2.4149,2.418,2.4226,2.4212,2.4254,2.4248,2.4245,2.4254,2.4333,2.435,2.4306,2.4444,2.4399,2.441,2.443,2.4444,2.4455,2.4448,2.4262,0,0,0,0,0,2.4026,2.4077,2.4104,2.4181,2.4197,2.4209,2.4238,2.4235,2.4268,2.4281,2.4301,2.4334,2.4383,2.4415,2.4461,2.4553,2.456,2.4595,2.4606,2.4615,2.4623,2.4671,2.4686,2.4525,2.4525,2.4525,0,0,2.407,2.4094,2.4127,2.4191,2.4215,2.4267,2.4221,2.4279,2.4317,2.429,2.4363,2.438,2.4416,2.4501,2.4539,2.4517,2.4669,2.4624,2.4631,2.4635,2.468,2.4695,2.4709,2.453,2.4529,2.4529,0,0,2.4174,2.42,2.4264,2.429,2.4328,2.4335,2.4351,2.4384,2.4393,2.4467,2.4447,2.4493,2.4577,2.4603,2.4627,2.4741,2.4723,2.4756,2.4814,2.486,2.4873,2.4884,2.4922,2.4936,2.4765,2.4765,2.4766,0,2.4223,2.4301,2.43,2.4358,2.4386,2.4364,2.4429,2.4454,2.4505,2.4524,2.45,2.4603,2.4626,2.4715,2.4743,2.4764,2.4781,2.4751,2.4871,2.4882,2.4893,2.4929,2.4944,2.4769,2.4769,2.4768,2.4768,0,2.4358,2.4413,2.4461,2.4509,2.4543,2.4605,2.4612,2.4646,2.464,2.4649,2.4723,2.4751,2.48,2.4822,2.4817,2.491,2.4895,2.4871,2.4825,2.4912,2.4945,2.496,2.4774,2.4773,2.4772,2.4771,0,0,2.4494,2.454,2.4558,2.4579,2.4618,2.466,2.472,2.4769,2.4797,2.4833,2.4882,2.4953,2.4931,2.4958,2.4956,2.4997,2.5083,2.4968,2.4969,2.4986,2.5184,2.52,2.5216,2.5072,2.5075,2.5077,2.518,0,2.4599,2.4704,2.4704,2.4801,2.485,2.483,2.4882,2.4911,2.4922,2.4965,2.4977,2.5026,2.4994,2.501,2.505,2.5064,2.5122,2.5057,2.5116,2.5118,2.5105,2.5234,2.5252,2.5348,2.5194,2.5196,2.5198,0,2.4736,2.4775,2.4877,2.4907,2.4928,2.4975,2.5018,2.506,2.5093,2.5098,2.5128,2.5119,2.5179,2.5134,2.5215,2.5171,2.5196,2.5206,2.521,2.5213,2.5161,2.5239,2.5379,2.5393,2.5219,2.5217,2.5216,0,2.4821,2.49,2.497,2.4989,2.5028,2.5061,2.5078,2.5108,2.5137,2.5175,2.5193,2.5238,2.5262,2.5297,2.53,2.5267,2.5382,2.5337,2.5386,2.5386,2.5409,2.5407,2.5553,2.543,2.5429,2.5429,2.5429,0,2.4938,2.5,2.5009,2.5051,2.512,2.512,2.5187,2.5202,2.5228,2.5273,2.526,2.5302,2.5304,2.5347,2.535,2.5416,2.5428,2.5433,2.5432,2.5432,2.5431,2.5447,2.5439,2.5433,2.5432,2.5431,2.5431,0,2.5043,2.5052,2.5127,2.5157,2.5166,2.5215,2.524,2.5281,2.529,2.5346,2.536,2.5374,2.5424,2.5431,2.549,2.5492,2.557,2.5564,2.5559,2.5557,2.5605,2.5599,2.5763,2.5783,2.5649,2.565,2.5651,0,2.5116,2.5163,2.5198,2.5227,2.5246,2.5293,2.5321,2.5323,2.5353,2.5393,2.5429,2.5477,2.5515,2.5596,2.5611,2.5656,2.5649,2.5704,2.5656,2.5654,2.5647,2.5643,2.5646,2.5712,2.5713,2.5715,2.5716,0,2.5242,2.5244,2.5286,2.533,2.5364,2.5399,2.5431,2.5456,2.5461,2.5496,2.5546,2.5576,2.5636,2.5683,2.5727,2.5744,2.573,2.5731,2.5744,2.5743,2.5737,2.5738,2.5581,2.5726,2.5725,2.5725,2.5724,2.5724,2.5332,2.5372,2.5402,2.5449,2.5473,2.5504,2.5542,2.5556,2.5599,2.5646,2.5645,2.57,2.573,2.5787,2.5808,2.585,2.5833,2.5852,2.5857,2.5861,2.5864,2.5733,2.5859,2.5859,2.5858,2.5858,2.5858,0,2.5455,2.5473,2.5517,2.5562,2.5599,2.5583,2.5618,2.5649,2.5698,2.5727,2.5765,2.5822,2.5868,2.5887,2.5932,2.5962,2.5957,2.5974,2.597,2.5974,2.5879,2.5862,2.5977,2.5977,2.5977,2.5977,2.5977,2.5977,2.5523,2.5589,2.5595,2.5672,2.569,2.5744,2.5765,2.5792,2.5815,2.588,2.5917,2.593,2.5954,2.6001,2.6042,2.6046,2.6062,2.6081,2.6083,2.5993,2.5981,2.5969,2.5953,2.6085,2.6085,2.6173,2.6174,2.6175]},{"header":{"parameterUnit":"m.s-1","parameterCategory":1,"la1":30.2991,"la2":30.254,"lo1":-89.0895,"lo2":-89.0444,"dy":0.0017,"dx":0.0017,"nx":28,"ny":28,"refTime":"2025-06-20T03:00:00:Z","depth":0,"parameterNumber":3,"parameterNumberName":"V-component_of_WINDS"},"data":[0,0,0,0,0,0,0,0,0,0,0,0,0,0,0,0,0,0,0,0,0,0,0,0,0,0,0,0,0,0,0,0,0,0,0,0,0,0,0,0,0,0,0,0,0,0,0,0,0,0,0,0,0,0,0,0,0,0,3.1167,3.1167,0,3.1154,3.1153,3.1153,3.1102,3.1101,3.1099,3.1098,3.1085,3.1086,3.1086,0,0,0,0,0,0,0,0,0,0,0,0,0,3.1147,3.1147,3.1167,3.1167,3.1166,3.1154,3.1153,3.1153,3.1102,3.1101,3.1099,3.1098,3.1085,3.1086,3.1086,0,0,0,0,0,0,0,0,0,0,0,0,0,3.1147,3.1147,3.1167,3.1139,3.1137,3.1154,3.1153,3.1153,3.1102,3.11,3.1099,3.1097,3.1084,3.1085,3.1087,3.1129,0,0,3.109,3.109,0,0,0,0,0,0,0,0,3.1147,3.1147,3.1143,3.1141,3.1138,3.1127,3.1141,3.1145,3.1103,3.1115,3.1098,3.1096,3.1101,3.11,3.1102,3.1128,3.1128,3.109,3.1091,3.1091,3.1092,0,0,0,0,0,0,0,3.1147,3.1148,3.1161,3.1143,3.114,3.1127,3.1125,3.1142,3.1118,3.1114,3.111,3.1109,3.1099,3.1101,3.1101,3.1128,3.109,3.1091,3.1092,3.1092,3.1187,3.1188,0,0,0,0,0,0,3.1151,3.1148,3.1162,3.1161,3.1138,3.1129,3.1127,3.1133,3.1118,3.1114,3.1111,3.1107,3.11,3.11,3.11,3.1147,3.1091,3.1092,3.1093,3.1185,3.1187,3.1189,0,0,0,0,0,0,3.1151,3.1152,3.1162,3.1154,3.1154,3.1131,3.1138,3.1133,3.1135,3.1115,3.1111,3.1117,3.1098,3.1099,3.1122,3.1146,3.1093,3.1094,3.1183,3.1185,3.1188,3.1242,0,0,0,0,0,0,3.115,3.1153,3.1169,3.1154,3.1155,3.1184,3.114,3.1134,3.1137,3.1132,3.112,3.1116,3.1097,3.112,3.1123,3.1146,3.1095,3.118,3.1184,3.1187,3.1238,3.1246,3.1254,0,0,0,0,0,3.115,3.1185,3.117,3.1172,3.1174,3.1186,3.1186,3.1163,3.114,3.1155,3.1142,3.1117,3.1144,3.1123,3.1126,3.115,3.1179,3.1183,3.1187,3.1235,3.1245,3.1253,0,0,0,0,0,0,3.1203,3.1183,3.1166,3.1197,3.1194,3.1177,3.1196,3.1175,3.1178,3.1173,3.1144,3.1142,3.1168,3.1162,3.114,3.1189,3.1157,3.1161,3.1192,3.1202,3.1209,3.1209,3.1096,0,0,0,0,0,3.1219,3.123,3.1212,3.1241,3.1241,3.1219,3.1223,3.1206,3.1201,3.1199,3.1188,3.1184,3.1191,3.1196,3.1202,3.1238,3.1233,3.1256,3.1263,3.127,3.1273,3.129,3.1299,3.1202,3.1202,3.1202,0,0,3.1251,3.1241,3.125,3.1252,3.1247,3.1259,3.1218,3.1233,3.1241,3.1201,3.1221,3.1213,3.1207,3.1236,3.1248,3.1231,3.1299,3.1275,3.128,3.128,3.1295,3.1304,3.1312,3.1205,3.1205,3.1204,0,0,3.1314,3.1309,3.1332,3.1328,3.1321,3.1306,3.1312,3.1299,3.1292,3.1312,3.1282,3.1291,3.1305,3.1301,3.1301,3.1363,3.1339,3.1366,3.1406,3.1422,3.1429,3.1436,3.1456,3.1464,3.137,3.1371,3.1371,0,3.1355,3.1372,3.1347,3.1363,3.1364,3.1329,3.1351,3.1349,3.1344,3.1346,3.1327,3.1342,3.1336,3.1362,3.1377,3.1379,3.1384,3.1366,3.143,3.1437,3.1442,3.1461,3.1469,3.1374,3.1373,3.1373,3.1373,0,3.1421,3.1433,3.1452,3.1448,3.1451,3.1471,3.1449,3.1456,3.1438,3.1425,3.1445,3.1437,3.1439,3.1444,3.1428,3.1468,3.1458,3.1436,3.1402,3.1455,3.1472,3.1479,3.1378,3.1377,3.1376,3.1375,0,0,3.1516,3.1498,3.1505,3.1502,3.1492,3.15,3.1518,3.152,3.1525,3.1524,3.1537,3.1549,3.1528,3.1528,3.1511,3.1525,3.1572,3.1501,3.15,3.1512,3.1614,3.1629,3.1638,3.1557,3.1559,3.156,3.1614,0,3.1575,3.1603,3.1581,3.1613,3.1623,3.159,3.1605,3.16,3.1589,3.1596,3.1583,3.1591,3.1564,3.1564,3.1577,3.1564,3.1592,3.156,3.1568,3.1568,3.1568,3.1647,3.1663,3.1714,3.162,3.1622,3.1622,0,3.1647,3.1647,3.168,3.1666,3.167,3.1684,3.1683,3.169,3.1684,3.1674,3.1674,3.1653,3.1668,3.1637,3.1658,3.1636,3.1639,3.1633,3.1634,3.1632,3.1597,3.1645,3.1731,3.1737,3.1633,3.1632,3.1631,0,3.171,3.1719,3.1739,3.1738,3.1723,3.1734,3.1728,3.172,3.1722,3.1722,3.1723,3.1725,3.1726,3.1728,3.1707,3.1687,3.173,3.1697,3.1721,3.1721,3.1729,3.1729,3.1814,3.1735,3.1735,3.1735,3.1735,0,3.1776,3.1797,3.1767,3.178,3.1802,3.1777,3.1799,3.179,3.1783,3.1793,3.1765,3.1775,3.1748,3.1755,3.1739,3.1757,3.1759,3.1751,3.1746,3.1751,3.1752,3.1751,3.1746,3.1737,3.1737,3.1736,3.1736,0,3.1849,3.1831,3.185,3.1834,3.1831,3.1848,3.1834,3.1844,3.1832,3.1844,3.1845,3.1825,3.1831,3.1812,3.1815,3.1805,3.183,3.1821,3.1832,3.1828,3.1852,3.1849,3.1938,3.1947,3.1865,3.1866,3.1866,0,3.1891,3.1906,3.1892,3.1896,3.1892,3.1899,3.1901,3.1878,3.1881,3.1874,3.1885,3.1889,3.1891,3.1903,3.1888,3.189,3.1879,3.191,3.1879,3.1884,3.1876,3.1875,3.1875,3.1916,3.1917,3.1917,3.1918,0,3.1967,3.1957,3.1961,3.1961,3.1964,3.1964,3.1961,3.1966,3.1941,3.1946,3.1951,3.1953,3.1956,3.196,3.1959,3.1953,3.1931,3.1928,3.1933,3.1938,3.1943,3.1938,3.1847,3.1926,3.1925,3.1924,3.1924,3.1924,3.2024,3.2035,3.2026,3.2031,3.2027,3.2025,3.2033,3.2021,3.2026,3.2026,3.2012,3.2021,3.2013,3.201,3.2006,3.2012,3.1997,3.2005,3.2007,3.2009,3.2012,3.1944,3.2012,3.2012,3.2011,3.2011,3.2011,0,3.2096,3.2089,3.2094,3.209,3.2094,3.2074,3.207,3.2074,3.2082,3.2077,3.2079,3.2085,3.2089,3.2075,3.2076,3.2083,3.2073,3.2084,3.2082,3.2081,3.2026,3.202,3.2092,3.2092,3.2092,3.2092,3.2092,3.2092,3.2134,3.215,3.214,3.2154,3.2147,3.2154,3.2153,3.2151,3.2147,3.2155,3.2157,3.2148,3.2139,3.214,3.2142,3.2138,3.2138,3.2152,3.2145,3.2093,3.2085,3.2077,3.2071,3.2153,3.2154,3.2199,3.2199,3.2199]}]]